SAM3111 EGUN-KADW

Flight info

Callsign SAM3111
Flight time N/A
Altitude 36000
Route EBOTO UN601 BOLBI L60 PENIL M144 BAGSO DCT MALOT/M076F380 DCT 53N020W 53N030W 52N040W 50N050W DCT ELSIR/N0433F400 N398B TUSKY Q475 COPLY Q75 BIZEX Q133 MGERK DCT LAFLN SPISY2
Aircraft B737/M-SDE2E3FGHIRWXY/LB1

Departure

Time N/A
Airport RAF Mildenhall (EGUN)

Arrival

Time 2026-04-30 05:20
Airport Joint Base Andrews (KADW)
Time Latitude Longitude Altitude Speed Heading
2026-04-30 03:56 42.83636 -69.48444 36003 ft 412 kts 248°
2026-04-30 03:56 42.82530 -69.52035 35999 ft 411 kts 248°
2026-04-30 03:56 42.80316 -69.59215 36001 ft 411 kts 248°
2026-04-30 03:57 42.78096 -69.66389 35993 ft 411 kts 248°
2026-04-30 03:57 42.75878 -69.73541 35988 ft 410 kts 248°
2026-04-30 03:58 42.73657 -69.80686 35988 ft 409 kts 248°
2026-04-30 03:58 42.71436 -69.87807 35987 ft 408 kts 248°
2026-04-30 03:59 42.69217 -69.94909 35969 ft 408 kts 248°
2026-04-30 03:59 42.66993 -70.02000 35971 ft 407 kts 248°
2026-04-30 04:00 42.64768 -70.09016 35974 ft 407 kts 247°
2026-04-30 04:00 42.62516 -70.16062 35974 ft 406 kts 247°
2026-04-30 04:01 42.60265 -70.23104 35963 ft 406 kts 247°
2026-04-30 04:01 42.58017 -70.30146 35964 ft 407 kts 247°
2026-04-30 04:02 42.55767 -70.37195 35958 ft 407 kts 247°
2026-04-30 04:02 42.53512 -70.44242 35965 ft 407 kts 247°
2026-04-30 04:03 42.51266 -70.51240 35963 ft 407 kts 247°
2026-04-30 04:03 42.48997 -70.58282 35964 ft 408 kts 247°
2026-04-30 04:04 42.46713 -70.65313 35963 ft 408 kts 247°
2026-04-30 04:04 42.44421 -70.72352 35963 ft 408 kts 247°
2026-04-30 04:05 42.42125 -70.79389 35949 ft 409 kts 247°
2026-04-30 04:05 42.39828 -70.86416 35942 ft 409 kts 246°
2026-04-30 04:06 42.37523 -70.93451 35952 ft 409 kts 246°
2026-04-30 04:06 42.35250 -71.00507 35952 ft 409 kts 249°
2026-04-30 04:07 42.33427 -71.07782 35956 ft 409 kts 253°
2026-04-30 04:08 42.30951 -71.18826 35954 ft 409 kts 252°
2026-04-30 04:08 42.29237 -71.26173 35944 ft 409 kts 252°
2026-04-30 04:09 42.27503 -71.33439 35943 ft 409 kts 252°
2026-04-30 04:09 42.25747 -71.40738 35944 ft 409 kts 252°
2026-04-30 04:10 42.23988 -71.48034 35947 ft 409 kts 251°
2026-04-30 04:10 42.22226 -71.55322 35945 ft 408 kts 252°
2026-04-30 04:11 42.20459 -71.62609 35945 ft 408 kts 251°
2026-04-30 04:11 42.18688 -71.69891 35948 ft 408 kts 251°
2026-04-30 04:12 42.16911 -71.77171 35938 ft 408 kts 251°
2026-04-30 04:12 42.15135 -71.84428 35935 ft 407 kts 251°
2026-04-30 04:13 42.13368 -71.91621 35935 ft 408 kts 251°
2026-04-30 04:13 42.11584 -71.98871 35938 ft 407 kts 251°
2026-04-30 04:14 42.09796 -72.06110 35934 ft 407 kts 251°
2026-04-30 04:14 42.08006 -72.13340 35926 ft 407 kts 251°
2026-04-30 04:15 42.06205 -72.20583 35921 ft 407 kts 251°
2026-04-30 04:15 42.04410 -72.27799 35917 ft 406 kts 251°
2026-04-30 04:16 42.02615 -72.35008 35912 ft 406 kts 251°
2026-04-30 04:16 42.00826 -72.42167 35916 ft 406 kts 251°
2026-04-30 04:17 41.99314 -72.48205 35915 ft 407 kts 251°
2026-04-30 04:17 41.97502 -72.55419 35917 ft 407 kts 251°
2026-04-30 04:18 41.95696 -72.62582 35919 ft 407 kts 251°
2026-04-30 04:18 41.93481 -72.69574 35919 ft 407 kts 240°
2026-04-30 04:18 41.91712 -72.72551 35926 ft 411 kts 224°
2026-04-30 04:19 41.89485 -72.74973 35928 ft 412 kts 221°
2026-04-30 04:19 41.85297 -72.80177 35934 ft 407 kts 230°
2026-04-30 04:20 41.81488 -72.85837 35918 ft 409 kts 230°
2026-04-30 04:20 41.77601 -72.91379 35921 ft 410 kts 228°
2026-04-30 04:21 41.73611 -72.96848 35918 ft 410 kts 227°
2026-04-30 04:21 41.69602 -73.02277 35916 ft 410 kts 227°
2026-04-30 04:22 41.65584 -73.07708 35923 ft 410 kts 227°
2026-04-30 04:22 41.61584 -73.13111 35926 ft 410 kts 227°
2026-04-30 04:23 41.57564 -73.18534 35924 ft 411 kts 227°
2026-04-30 04:23 41.53538 -73.23956 35931 ft 410 kts 227°
2026-04-30 04:24 41.49524 -73.29352 35936 ft 409 kts 227°
2026-04-30 04:24 41.45520 -73.34760 35930 ft 409 kts 227°
2026-04-30 04:25 41.41551 -73.40195 35930 ft 409 kts 227°
2026-04-30 04:25 41.37599 -73.45593 35922 ft 409 kts 227°
2026-04-30 04:26 41.33621 -73.51008 35926 ft 409 kts 227°
2026-04-30 04:26 41.29486 -73.56229 35918 ft 412 kts 220°
2026-04-30 04:26 41.26994 -73.58131 35925 ft 418 kts 205°
2026-04-30 04:27 41.24214 -73.59339 35917 ft 422 kts 199°
2026-04-30 04:27 41.18457 -73.61012 35912 ft 425 kts 196°
2026-04-30 04:28 41.12672 -73.62588 35903 ft 424 kts 197°
2026-04-30 04:28 41.06924 -73.64337 35898 ft 424 kts 198°
2026-04-30 04:29 41.01161 -73.66077 35896 ft 424 kts 198°
2026-04-30 04:29 40.95429 -73.67766 35899 ft 425 kts 197°
2026-04-30 04:30 40.89651 -73.69451 35906 ft 425 kts 197°
2026-04-30 04:30 40.83872 -73.71132 35913 ft 425 kts 198°
2026-04-30 04:31 40.78084 -73.72815 35909 ft 426 kts 198°
2026-04-30 04:31 40.72278 -73.74500 35912 ft 428 kts 198°
2026-04-30 04:32 40.66463 -73.76186 35925 ft 428 kts 198°
2026-04-30 04:32 40.60841 -73.78518 35921 ft 418 kts 213°
2026-04-30 04:33 40.55791 -73.82287 35929 ft 419 kts 211°
2026-04-30 04:33 40.50447 -73.85326 35928 ft 423 kts 207°
2026-04-30 04:34 40.45044 -73.88402 35927 ft 422 kts 209°
2026-04-30 04:34 40.39711 -73.91678 35924 ft 422 kts 210°
2026-04-30 04:35 40.34410 -73.95001 35920 ft 422 kts 212°
2026-04-30 04:35 40.29462 -73.99052 35928 ft 418 kts 220°
2026-04-30 04:36 40.24872 -74.03711 35926 ft 417 kts 222°
2026-04-30 04:36 40.20236 -74.08318 35928 ft 418 kts 220°
2026-04-30 04:37 40.15538 -74.12759 35929 ft 419 kts 219°
2026-04-30 04:37 40.10794 -74.17187 35926 ft 419 kts 219°
2026-04-30 04:38 40.06062 -74.21612 35925 ft 418 kts 219°
2026-04-30 04:38 40.01325 -74.26035 35933 ft 418 kts 219°
2026-04-30 04:39 39.96598 -74.30440 35939 ft 417 kts 219°
2026-04-30 04:39 39.91867 -74.34843 35945 ft 417 kts 220°
2026-04-30 04:40 39.87141 -74.39235 35946 ft 417 kts 219°
2026-04-30 04:40 39.82413 -74.43621 35938 ft 417 kts 219°
2026-04-30 04:41 39.77726 -74.47963 35922 ft 416 kts 219°
2026-04-30 04:41 39.73002 -74.52329 35913 ft 416 kts 219°
2026-04-30 04:42 39.68284 -74.56683 35908 ft 416 kts 219°
2026-04-30 04:42 39.63564 -74.61034 35899 ft 415 kts 220°
2026-04-30 04:43 39.58850 -74.65371 35882 ft 415 kts 219°
2026-04-30 04:43 39.54137 -74.69699 35883 ft 415 kts 219°
2026-04-30 04:44 39.49428 -74.74015 35882 ft 414 kts 219°
2026-04-30 04:44 39.44742 -74.78303 35873 ft 414 kts 220°
2026-04-30 04:45 39.40043 -74.82596 35868 ft 413 kts 220°
2026-04-30 04:45 39.35348 -74.86880 35880 ft 413 kts 220°
2026-04-30 04:46 39.30656 -74.91157 35870 ft 412 kts 220°
2026-04-30 04:46 39.25954 -74.95406 35874 ft 413 kts 218°
2026-04-30 04:47 39.20999 -74.99203 35875 ft 415 kts 214°
2026-04-30 04:47 39.15930 -75.02705 35873 ft 415 kts 213°
2026-04-30 04:48 39.10859 -75.06250 35870 ft 414 kts 214°
2026-04-30 04:48 39.05815 -75.09843 35881 ft 414 kts 214°
2026-04-30 04:49 39.00784 -75.13443 35873 ft 414 kts 214°
2026-04-30 04:49 38.95745 -75.17042 35872 ft 413 kts 215°
2026-04-30 04:50 38.90747 -75.20604 35861 ft 413 kts 215°
2026-04-30 04:50 38.85726 -75.24176 35858 ft 413 kts 215°
2026-04-30 04:51 38.80943 -75.28119 35833 ft 400 kts 233°
2026-04-30 04:51 38.79410 -75.31032 35857 ft 392 kts 247°
2026-04-30 04:51 38.78438 -75.34284 35857 ft 390 kts 255°
2026-04-30 04:51 38.77876 -75.37713 35302 ft 398 kts 266°
2026-04-30 04:52 38.78065 -75.41249 34629 ft 399 kts 276°
2026-04-30 04:52 38.78538 -75.44759 33769 ft 400 kts 277°
2026-04-30 04:52 38.78988 -75.48283 32893 ft 401 kts 275°
2026-04-30 04:52 38.79139 -75.51838 31949 ft 400 kts 265°
2026-04-30 04:53 38.78799 -75.55388 30878 ft 404 kts 261°
2026-04-30 04:53 38.78391 -75.58955 30081 ft 402 kts 263°
2026-04-30 04:53 38.78172 -75.62467 29325 ft 399 kts 266°
2026-04-30 04:53 38.78048 -75.65998 28607 ft 394 kts 266°
2026-04-30 04:54 38.77901 -75.69488 27784 ft 392 kts 265°
2026-04-30 04:54 38.77704 -75.72950 27066 ft 387 kts 265°
2026-04-30 04:54 38.77482 -75.76378 26348 ft 383 kts 265°
2026-04-30 04:54 38.77252 -75.79767 25646 ft 379 kts 265°
2026-04-30 04:55 38.77023 -75.83110 24956 ft 375 kts 265°
2026-04-30 04:55 38.76801 -75.86391 24276 ft 371 kts 265°
2026-04-30 04:55 38.76581 -75.89664 23602 ft 367 kts 265°
2026-04-30 04:55 38.76364 -75.92900 22932 ft 363 kts 265°
2026-04-30 04:56 38.76146 -75.96145 22259 ft 359 kts 265°
2026-04-30 04:56 38.75937 -75.99277 21616 ft 356 kts 265°
2026-04-30 04:56 38.75723 -76.02433 20947 ft 352 kts 265°
2026-04-30 04:56 38.75512 -76.05539 20312 ft 348 kts 265°
2026-04-30 04:57 38.75299 -76.08631 19542 ft 348 kts 264°
2026-04-30 04:57 38.75082 -76.11714 18858 ft 346 kts 264°
2026-04-30 04:57 38.74864 -76.14774 18250 ft 343 kts 264°
2026-04-30 04:57 38.74650 -76.17781 18036 ft 336 kts 264°
2026-04-30 04:58 38.74437 -76.20760 17913 ft 333 kts 264°
2026-04-30 04:58 38.74230 -76.23646 17838 ft 316 kts 264°
2026-04-30 04:58 38.74034 -76.26369 17824 ft 297 kts 264°
2026-04-30 04:58 38.73851 -76.28923 17820 ft 280 kts 264°
2026-04-30 04:59 38.73678 -76.31318 17820 ft 265 kts 264°
2026-04-30 04:59 38.73512 -76.33603 17825 ft 250 kts 264°
2026-04-30 04:59 38.73356 -76.35756 17828 ft 235 kts 264°
2026-04-30 04:59 38.73210 -76.37767 17829 ft 220 kts 264°
2026-04-30 05:00 38.73072 -76.39660 17834 ft 208 kts 264°
2026-04-30 05:00 38.72938 -76.41484 17840 ft 205 kts 264°
2026-04-30 05:00 38.72802 -76.43337 17862 ft 213 kts 264°
2026-04-30 05:00 38.72661 -76.45258 17867 ft 218 kts 264°
2026-04-30 05:01 38.72518 -76.47195 17856 ft 218 kts 264°
2026-04-30 05:01 38.72375 -76.49121 17844 ft 216 kts 264°
2026-04-30 05:01 38.72238 -76.51006 17844 ft 214 kts 265°
2026-04-30 05:01 38.72471 -76.52869 17852 ft 216 kts 289°
2026-04-30 05:02 38.73240 -76.54555 17839 ft 227 kts 306°
2026-04-30 05:02 38.74425 -76.55962 17865 ft 237 kts 311°
2026-04-30 05:02 38.75675 -76.57335 17845 ft 235 kts 310°
2026-04-30 05:02 38.76492 -76.58282 17836 ft 233 kts 309°
2026-04-30 05:03 38.78053 -76.60142 17835 ft 230 kts 309°
2026-04-30 05:03 38.79224 -76.61531 17832 ft 229 kts 309°
2026-04-30 05:03 38.80005 -76.62452 17836 ft 228 kts 309°
2026-04-30 05:03 38.81172 -76.63825 17837 ft 228 kts 309°
2026-04-30 05:04 38.82351 -76.65204 17666 ft 235 kts 311°
2026-04-30 05:04 38.83767 -76.66458 16989 ft 260 kts 323°
2026-04-30 05:04 38.85468 -76.67551 15989 ft 287 kts 328°
2026-04-30 05:04 38.87329 -76.68628 15325 ft 297 kts 329°
2026-04-30 05:05 38.89203 -76.69747 14913 ft 296 kts 328°
2026-04-30 05:05 38.91050 -76.70893 14540 ft 293 kts 327°
2026-04-30 05:05 38.92854 -76.72071 14154 ft 290 kts 325°
2026-04-30 05:06 38.96359 -76.74585 13349 ft 287 kts 324°
2026-04-30 05:06 38.98109 -76.75764 12932 ft 291 kts 334°
2026-04-30 05:06 39.00139 -76.76222 12510 ft 300 kts 352°
2026-04-30 05:06 39.02217 -76.76282 12054 ft 297 kts 354°
2026-04-30 05:07 39.04278 -76.76292 11579 ft 295 kts 354°
2026-04-30 05:07 39.06321 -76.76303 11102 ft 292 kts 354°
2026-04-30 05:07 39.08348 -76.76316 10626 ft 290 kts 354°
2026-04-30 05:07 39.10355 -76.76332 10146 ft 288 kts 354°
2026-04-30 05:08 39.12349 -76.76358 9678 ft 286 kts 354°
2026-04-30 05:08 39.14331 -76.76389 9201 ft 283 kts 354°
2026-04-30 05:08 39.16295 -76.76426 8721 ft 281 kts 354°
2026-04-30 05:08 39.18249 -76.76469 8248 ft 280 kts 354°
2026-04-30 05:09 39.20188 -76.76519 7768 ft 278 kts 354°
2026-04-30 05:09 39.22118 -76.76574 7298 ft 277 kts 354°
2026-04-30 05:09 39.24007 -76.76866 6796 ft 269 kts 334°
2026-04-30 05:09 39.25512 -76.78161 6328 ft 256 kts 306°
2026-04-30 05:10 39.26287 -76.80142 5865 ft 244 kts 276°
2026-04-30 05:10 39.26170 -76.82219 5466 ft 234 kts 246°
2026-04-30 05:10 39.25229 -76.83862 5071 ft 230 kts 216°
2026-04-30 05:10 39.23804 -76.84708 4816 ft 222 kts 200°
2026-04-30 05:11 39.22343 -76.85302 4512 ft 218 kts 195°
2026-04-30 05:11 39.20862 -76.85649 4245 ft 212 kts 190°
2026-04-30 05:11 39.19437 -76.85897 3979 ft 201 kts 189°
2026-04-30 05:11 39.18078 -76.86125 3721 ft 191 kts 189°
2026-04-30 05:12 39.16797 -76.86340 3520 ft 180 kts 189°
2026-04-30 05:12 39.15595 -76.86547 3346 ft 170 kts 189°
2026-04-30 05:12 39.14432 -76.86762 3196 ft 166 kts 189°
2026-04-30 05:12 39.13298 -76.86969 3081 ft 164 kts 189°
2026-04-30 05:13 39.12167 -76.87179 2977 ft 165 kts 188°
2026-04-30 05:13 39.11014 -76.87282 2862 ft 167 kts 180°
2026-04-30 05:13 39.09868 -76.87248 2758 ft 167 kts 178°
2026-04-30 05:13 39.08705 -76.87209 2672 ft 167 kts 178°
2026-04-30 05:14 39.07534 -76.87182 2603 ft 168 kts 178°
2026-04-30 05:14 39.06369 -76.87164 2522 ft 165 kts 178°
2026-04-30 05:14 39.05229 -76.87154 2456 ft 163 kts 178°
2026-04-30 05:14 39.04098 -76.87144 2467 ft 162 kts 178°
2026-04-30 05:15 39.03001 -76.87141 2459 ft 153 kts 177°
2026-04-30 05:15 39.01945 -76.87132 2433 ft 150 kts 178°
2026-04-30 05:15 39.00901 -76.87124 2430 ft 151 kts 177°
2026-04-30 05:15 38.99843 -76.87117 2451 ft 153 kts 179°
2026-04-30 05:16 38.98778 -76.87105 2451 ft 152 kts 178°
2026-04-30 05:16 38.97723 -76.87106 2450 ft 151 kts 179°
2026-04-30 05:16 38.96666 -76.87106 2455 ft 152 kts 178°
2026-04-30 05:16 38.95622 -76.87101 2465 ft 147 kts 178°
2026-04-30 05:17 38.94643 -76.87106 2429 ft 144 kts 177°
2026-04-30 05:17 38.93447 -76.87093 2505 ft 192 kts 178°
2026-04-30 05:17 38.92188 -76.87066 2558 ft 168 kts 178°
2026-04-30 05:17 38.91066 -76.87066 2248 ft 156 kts 179°
2026-04-30 05:18 38.90013 -76.87096 1966 ft 149 kts 179°
2026-04-30 05:18 38.88965 -76.87060 1674 ft 152 kts 180°
2026-04-30 05:18 38.87921 -76.87021 1441 ft 151 kts 179°
2026-04-30 05:18 38.86874 -76.87000 1261 ft 147 kts 180°
2026-04-30 05:19 38.85861 -76.87019 1071 ft 146 kts 182°
2026-04-30 05:19 38.84837 -76.87056 858 ft 147 kts 180°
2026-04-30 05:19 38.83821 -76.87054 682 ft 145 kts 180°
2026-04-30 05:19 38.82819 -76.87061 466 ft 144 kts 179°
2026-04-30 05:20 38.81822 -76.87053 310 ft 137 kts 180°
2026-04-30 05:20 38.81062 -76.87053 281 ft 46 kts 180°
2026-04-30 05:20 38.80947 -76.87145 282 ft 0 kts 257°
2026-04-30 05:20 38.80946 -76.87149 282 ft 1 kts 257°
2026-04-30 05:21 38.80945 -76.87167 282 ft 6 kts 266°
2026-04-30 05:21 38.80942 -76.87276 280 ft 18 kts 268°
2026-04-30 05:21 38.80937 -76.87412 278 ft 12 kts 256°
2026-04-30 05:21 38.80851 -76.87442 278 ft 15 kts 178°
2026-04-30 05:22 38.80747 -76.87439 276 ft 15 kts 181°
2026-04-30 05:22 38.80633 -76.87456 274 ft 16 kts 219°
2026-04-30 05:22 38.80612 -76.87590 274 ft 15 kts 269°
2026-04-30 05:22 38.80655 -76.87657 275 ft 0 kts 352°